JAL004 RJTT-YSSY

Flight info

Callsign JAL004
Flight time N/A
Altitude 36000
Route VAMOS XAC B586 SABRI/N0507F300 B586 CADDY/N0505F310 B586 UKATA 25N141E 20N142E DCT RIDLL A216 GALEE/N0507F330 A216 CS Y177 AKROM Y153 JEMMA/N0495F350 Y153 ROKUU H652 BOREE
Aircraft A20N/H-SDE3FGHIM1M2RWXY/LB1

Departure

Time 2026-05-01 09:54
Airport Tokyo Haneda International Airport (RJTT)

Arrival

Time N/A
Airport Sydney Kingsford Smith International Airport (YSSY)
Time Latitude Longitude Altitude Speed Heading
2026-05-01 09:43 35.55504 139.78930 25 ft 0 kts 330°
2026-05-01 09:45 35.55503 139.78931 25 ft 3 kts 330°
2026-05-01 09:45 35.55486 139.78943 26 ft 3 kts 330°
2026-05-01 09:46 35.55470 139.78954 27 ft 3 kts 330°
2026-05-01 09:46 35.55454 139.78966 25 ft 3 kts 321°
2026-05-01 09:46 35.55436 139.78976 28 ft 3 kts
2026-05-01 09:46 35.55418 139.78967 25 ft 3 kts 51°
2026-05-01 09:47 35.55409 139.78949 25 ft 0 kts 61°
2026-05-01 09:47 35.55410 139.78951 25 ft 3 kts 61°
2026-05-01 09:47 35.55423 139.78980 26 ft 5 kts 59°
2026-05-01 09:48 35.55443 139.79017 24 ft 5 kts 46°
2026-05-01 09:48 35.55477 139.79035 26 ft 6 kts 19°
2026-05-01 09:48 35.55518 139.79031 26 ft 5 kts 335°
2026-05-01 09:48 35.55540 139.79017 26 ft 6 kts 330°
2026-05-01 09:49 35.55605 139.78972 23 ft 10 kts 330°
2026-05-01 09:49 35.55671 139.78924 25 ft 12 kts 329°
2026-05-01 09:49 35.55751 139.78865 23 ft 15 kts 328°
2026-05-01 09:49 35.55844 139.78804 25 ft 16 kts 331°
2026-05-01 09:50 35.55907 139.78755 25 ft 12 kts 324°
2026-05-01 09:50 35.55911 139.78753 24 ft 0 kts 333°
2026-05-01 09:51 35.55918 139.78749 25 ft 4 kts 332°
2026-05-01 09:51 35.55959 139.78720 25 ft 10 kts 329°
2026-05-01 09:51 35.56036 139.78664 23 ft 16 kts 329°
2026-05-01 09:51 35.56146 139.78585 24 ft 21 kts 330°
2026-05-01 09:52 35.56257 139.78506 26 ft 18 kts 330°
2026-05-01 09:52 35.56368 139.78464 25 ft 12 kts 29°
2026-05-01 09:52 35.56421 139.78548 26 ft 15 kts 60°
2026-05-01 09:52 35.56477 139.78676 26 ft 19 kts 79°
2026-05-01 09:53 35.56422 139.78776 28 ft 16 kts 147°
2026-05-01 09:53 35.56218 139.78919 25 ft 74 kts 150°
2026-05-01 09:53 35.55499 139.79433 28 ft 164 kts 149°
2026-05-01 09:53 35.54356 139.80281 580 ft 211 kts 148°
2026-05-01 09:54 35.53015 139.81307 1475 ft 241 kts 148°
2026-05-01 09:54 35.51668 139.82560 2842 ft 245 kts 139°
2026-05-01 09:54 35.50218 139.83714 4088 ft 261 kts 152°
2026-05-01 09:54 35.48460 139.84801 4608 ft 307 kts 154°
2026-05-01 09:55 35.46294 139.85651 5207 ft 340 kts 177°
2026-05-01 09:55 35.44024 139.85490 7380 ft 315 kts 187°
2026-05-01 09:55 35.41911 139.85083 9416 ft 298 kts 191°
2026-05-01 09:55 35.39930 139.84567 11179 ft 285 kts 194°
2026-05-01 09:56 35.38010 139.83966 12458 ft 288 kts 196°
2026-05-01 09:56 35.36043 139.83259 13316 ft 304 kts 198°
2026-05-01 09:56 35.33953 139.82428 13919 ft 326 kts 199°
2026-05-01 09:56 35.31741 139.81487 14574 ft 346 kts 200°
2026-05-01 09:57 35.29415 139.80455 15245 ft 363 kts 200°
2026-05-01 09:57 35.26995 139.79352 15924 ft 379 kts 201°
2026-05-01 09:57 35.24514 139.78200 16589 ft 393 kts 201°
2026-05-01 09:57 35.21914 139.77482 17254 ft 405 kts 181°
2026-05-01 09:58 35.19622 139.77834 17980 ft 410 kts 167°
2026-05-01 09:58 35.16890 139.78756 18842 ft 415 kts 162°
2026-05-01 09:58 35.14138 139.79897 19664 ft 421 kts 160°
2026-05-01 09:58 35.11372 139.81163 20462 ft 426 kts 159°
2026-05-01 09:59 35.08602 139.82504 21226 ft 431 kts 158°
2026-05-01 09:59 35.05812 139.83898 21950 ft 436 kts 158°
2026-05-01 09:59 35.02996 139.85331 22661 ft 441 kts 157°
2026-05-01 09:59 35.00151 139.86789 23347 ft 445 kts 157°
2026-05-01 10:00 34.97311 139.88336 23995 ft 450 kts 150°
2026-05-01 10:00 34.94931 139.90813 24613 ft 456 kts 128°
2026-05-01 10:00 34.93380 139.94189 25214 ft 460 kts 113°
2026-05-01 10:00 34.92223 139.97856 25829 ft 464 kts 109°
2026-05-01 10:01 34.91173 140.01591 26393 ft 468 kts 108°
2026-05-01 10:01 34.90165 140.05362 27097 ft 468 kts 108°
2026-05-01 10:01 34.89170 140.09161 27531 ft 475 kts 108°
2026-05-01 10:01 34.88158 140.13031 27802 ft 484 kts 108°
2026-05-01 10:02 34.87117 140.16990 27921 ft 497 kts 108°
2026-05-01 10:02 34.86040 140.21048 27963 ft 509 kts 108°
2026-05-01 10:02 34.84941 140.25147 27978 ft 510 kts 108°
2026-05-01 10:02 34.83830 140.29252 27988 ft 510 kts 108°
2026-05-01 10:03 34.82727 140.33295 27987 ft 510 kts 108°
2026-05-01 10:03 34.81601 140.37391 27991 ft 510 kts 108°
2026-05-01 10:03 34.80470 140.41477 27996 ft 510 kts 109°
2026-05-01 10:03 34.79330 140.45569 27993 ft 510 kts 109°
2026-05-01 10:04 34.78189 140.49643 27995 ft 510 kts 109°
2026-05-01 10:04 34.77038 140.53733 27993 ft 510 kts 109°
2026-05-01 10:04 34.75884 140.57811 27997 ft 510 kts 109°
2026-05-01 10:04 34.74722 140.61885 27995 ft 510 kts 109°
2026-05-01 10:05 34.73338 140.65839 27998 ft 510 kts 121°
2026-05-01 10:05 34.71050 140.69099 28184 ft 506 kts 141°
2026-05-01 10:05 34.68034 140.71175 29283 ft 493 kts 161°
2026-05-01 10:05 34.64727 140.71909 30473 ft 478 kts 180°
2026-05-01 10:06 34.61462 140.71543 31592 ft 465 kts 188°
2026-05-01 10:06 34.58333 140.70956 32567 ft 456 kts 189°
2026-05-01 10:06 34.55190 140.70404 33217 ft 454 kts 187°
2026-05-01 10:06 34.52045 140.70054 33765 ft 454 kts 181°
2026-05-01 10:07 34.48887 140.70145 34330 ft 453 kts 177°
2026-05-01 10:07 34.45740 140.70403 34870 ft 452 kts 175°
2026-05-01 10:07 34.42603 140.70719 35396 ft 451 kts 175°
2026-05-01 10:07 34.39501 140.71058 35727 ft 455 kts 175°
2026-05-01 10:08 34.33071 140.71789 35949 ft 472 kts 175°
2026-05-01 10:08 34.29762 140.72167 35979 ft 483 kts 175°
2026-05-01 10:09 34.23006 140.72932 35993 ft 491 kts 175°
2026-05-01 10:09 34.16205 140.73693 35997 ft 491 kts 175°
2026-05-01 10:10 34.09396 140.74446 35994 ft 491 kts 175°
2026-05-01 10:10 33.99752 140.75502 35998 ft 491 kts 175°
2026-05-01 10:11 33.92946 140.76240 35999 ft 491 kts 175°
2026-05-01 10:11 33.86132 140.76975 35997 ft 491 kts 175°
2026-05-01 10:12 33.79372 140.77701 35996 ft 491 kts 175°
2026-05-01 10:13 33.69147 140.78796 35996 ft 491 kts 175°
2026-05-01 10:13 33.62337 140.79522 35997 ft 491 kts 175°
2026-05-01 10:14 33.52162 140.80604 35997 ft 491 kts 175°
2026-05-01 10:14 33.45355 140.81325 36000 ft 491 kts 175°
2026-05-01 10:15 33.38546 140.82046 35999 ft 491 kts 175°
2026-05-01 10:15 33.31741 140.82766 35999 ft 491 kts 175°
2026-05-01 10:16 33.24930 140.83485 35997 ft 491 kts 175°
2026-05-01 10:17 33.14718 140.84560 35998 ft 491 kts 175°
2026-05-01 10:17 33.04554 140.85629 35998 ft 491 kts 175°
2026-05-01 10:18 32.94330 140.86703 35998 ft 491 kts 175°
2026-05-01 10:19 32.87560 140.87412 36003 ft 491 kts 175°
2026-05-01 10:19 32.80748 140.88124 36000 ft 491 kts 175°
2026-05-01 10:20 32.70540 140.89189 35999 ft 491 kts 175°
2026-05-01 10:20 32.63736 140.89899 35998 ft 491 kts 175°
2026-05-01 10:21 32.54609 140.90850 35999 ft 491 kts 175°
2026-05-01 10:22 32.44441 140.91906 36002 ft 491 kts 175°
2026-05-01 10:23 32.34227 140.92965 35998 ft 491 kts 175°
2026-05-01 10:23 32.24041 140.94018 36001 ft 491 kts 175°
2026-05-01 10:24 32.10436 140.95422 35998 ft 491 kts 175°
2026-05-01 10:25 31.96797 140.96827 36003 ft 491 kts 175°
2026-05-01 10:26 31.90031 140.97523 36000 ft 491 kts 175°
2026-05-01 10:27 31.76409 140.98920 36002 ft 491 kts 175°
2026-05-01 10:28 31.66198 140.99966 36000 ft 491 kts 175°
2026-05-01 10:28 31.56033 141.01004 36004 ft 491 kts 175°
2026-05-01 10:29 31.46539 141.01971 36001 ft 491 kts 175°
2026-05-01 10:30 31.32911 141.03356 35998 ft 491 kts 175°
2026-05-01 10:31 31.19334 141.04733 36001 ft 491 kts 175°
2026-05-01 10:32 31.09123 141.05765 35998 ft 491 kts 175°
2026-05-01 10:33 30.95517 141.07137 35998 ft 491 kts 175°
2026-05-01 10:34 30.85334 141.08162 36000 ft 491 kts 175°
2026-05-01 10:34 30.78517 141.08847 35998 ft 491 kts 175°
2026-05-01 10:35 30.68328 141.09868 36002 ft 491 kts 175°
2026-05-01 10:35 30.61506 141.10551 36000 ft 491 kts 175°
2026-05-01 10:36 30.51317 141.11570 35999 ft 491 kts 175°
2026-05-01 10:37 30.44505 141.12249 36000 ft 491 kts 175°
2026-05-01 10:37 30.35439 141.13152 35998 ft 491 kts 175°
2026-05-01 10:38 30.28628 141.13830 36000 ft 491 kts 175°
2026-05-01 10:38 30.21822 141.14506 35998 ft 491 kts 175°
2026-05-01 10:39 30.15049 141.15177 35998 ft 491 kts 175°
2026-05-01 10:39 30.08242 141.15852 36001 ft 491 kts 175°
2026-05-01 10:40 30.01420 141.16526 35998 ft 491 kts 175°
2026-05-01 10:40 29.94608 141.17199 35998 ft 491 kts 175°
2026-05-01 10:41 29.87839 141.17866 35998 ft 491 kts 175°
2026-05-01 10:42 29.77628 141.18871 36004 ft 491 kts 175°
2026-05-01 10:42 29.70822 141.19540 35998 ft 491 kts 175°
2026-05-01 10:43 29.64015 141.20208 35998 ft 491 kts 175°
2026-05-01 10:43 29.57197 141.20877 36002 ft 491 kts 175°
2026-05-01 10:44 29.50428 141.21539 35998 ft 491 kts 175°
2026-05-01 10:44 29.43621 141.22205 36000 ft 491 kts 175°
2026-05-01 10:45 29.36807 141.22870 36000 ft 491 kts 175°
2026-05-01 10:45 29.30625 141.23473 35999 ft 491 kts 175°
2026-05-01 10:46 29.23809 141.24136 36001 ft 491 kts 175°
2026-05-01 10:46 29.17002 141.24798 35999 ft 491 kts 175°
2026-05-01 10:47 29.10236 141.25455 35999 ft 491 kts 175°
2026-05-01 10:47 29.03429 141.26116 36001 ft 491 kts 175°
2026-05-01 10:48 28.96608 141.26776 35999 ft 491 kts 175°
2026-05-01 10:48 28.89797 141.27435 35999 ft 491 kts 175°
2026-05-01 10:49 28.83031 141.28089 36005 ft 491 kts 175°
2026-05-01 10:49 28.76223 141.28745 36003 ft 491 kts 175°
2026-05-01 10:50 28.69412 141.29402 35999 ft 491 kts 175°
2026-05-01 10:50 28.62601 141.30048 36001 ft 491 kts 175°
2026-05-01 10:51 28.55792 141.30673 36006 ft 491 kts 175°
2026-05-01 10:51 28.48976 141.31295 36011 ft 491 kts 175°
2026-05-01 10:52 28.42206 141.31910 36022 ft 491 kts 175°
2026-05-01 10:52 28.35394 141.32524 36034 ft 491 kts 175°
2026-05-01 10:53 28.28584 141.33135 36061 ft 491 kts 175°
2026-05-01 10:53 28.21803 141.33740 36075 ft 490 kts 175°
2026-05-01 10:54 28.14989 141.34347 36100 ft 490 kts 175°
2026-05-01 10:54 28.08175 141.34951 36125 ft 490 kts 175°
2026-05-01 10:55 28.01368 141.35553 36165 ft 490 kts 176°
2026-05-01 10:55 27.94676 141.37019 36044 ft 491 kts 164°
2026-05-01 10:56 27.88175 141.39257 36008 ft 491 kts 163°
2026-05-01 10:56 27.81605 141.41435 36006 ft 491 kts 165°
2026-05-01 10:57 27.75033 141.43437 36000 ft 491 kts 166°
2026-05-01 10:57 27.68404 141.45307 36004 ft 491 kts 167°
2026-05-01 10:58 27.61740 141.47071 35999 ft 491 kts 167°
2026-05-01 10:58 27.55067 141.48751 36001 ft 491 kts 168°
2026-05-01 10:59 27.48389 141.50369 36001 ft 491 kts 168°
2026-05-01 10:59 27.41695 141.51943 36004 ft 491 kts 168°
2026-05-01 11:00 27.34997 141.53483 36002 ft 491 kts 169°
2026-05-01 11:00 27.28338 141.54988 35999 ft 491 kts 169°
2026-05-01 11:01 27.21623 141.56487 36004 ft 491 kts 169°
2026-05-01 11:01 27.14912 141.57970 35999 ft 491 kts 169°
2026-05-01 11:02 27.08199 141.59443 36001 ft 491 kts 169°
2026-05-01 11:02 27.01535 141.60898 35999 ft 491 kts 169°
2026-05-01 11:03 26.94826 141.62356 35999 ft 491 kts 169°
2026-05-01 11:03 26.88111 141.63810 36001 ft 491 kts 169°
2026-05-01 11:04 26.81403 141.65260 35999 ft 491 kts 169°
2026-05-01 11:04 26.74714 141.66702 36003 ft 491 kts 169°
2026-05-01 11:05 26.68003 141.68146 35999 ft 491 kts 169°
2026-05-01 11:05 26.61292 141.69588 35999 ft 491 kts 169°
2026-05-01 11:06 26.54568 141.71032 35999 ft 491 kts 169°
2026-05-01 11:06 26.47848 141.72473 36003 ft 491 kts 169°
2026-05-01 11:07 26.37825 141.74620 35999 ft 491 kts 169°
2026-05-01 11:07 26.31114 141.76055 35999 ft 491 kts 169°
2026-05-01 11:08 26.24398 141.77491 36003 ft 491 kts 169°
2026-05-01 11:09 26.14317 141.79644 36001 ft 491 kts 169°
2026-05-01 11:09 26.07644 141.81067 35999 ft 491 kts 169°
2026-05-01 11:10 25.97569 141.83213 36002 ft 491 kts 169°
2026-05-01 11:10 25.90844 141.84644 35999 ft 491 kts 169°
2026-05-01 11:11 25.84130 141.86072 35999 ft 491 kts 169°
2026-05-01 11:11 25.77456 141.87489 35999 ft 491 kts 169°
2026-05-01 11:12 25.70983 141.88862 36001 ft 491 kts 169°
2026-05-01 11:12 25.65315 141.90064 35999 ft 491 kts 169°
2026-05-01 11:13 25.58592 141.91487 35999 ft 491 kts 169°
2026-05-01 11:13 25.51916 141.92900 35999 ft 491 kts 169°
2026-05-01 11:14 25.45206 141.94318 35999 ft 491 kts 169°
2026-05-01 11:14 25.38481 141.95737 36002 ft 491 kts 169°
2026-05-01 11:15 25.31770 141.97151 35999 ft 491 kts 169°
2026-05-01 11:15 25.25098 141.98554 35999 ft 491 kts 169°
2026-05-01 11:16 25.18377 141.99966 35999 ft 491 kts 169°
2026-05-01 11:16 25.11667 142.01372 36000 ft 491 kts 169°
2026-05-01 11:17 25.04952 142.02774 35999 ft 491 kts 169°
2026-05-01 11:17 24.98243 142.04212 35999 ft 491 kts 168°
2026-05-01 11:18 24.91557 142.05827 35999 ft 491 kts 167°
2026-05-01 11:18 24.84896 142.07488 35999 ft 491 kts 167°
2026-05-01 11:19 24.78255 142.09136 35999 ft 491 kts 167°
2026-05-01 11:19 24.71581 142.10783 36000 ft 491 kts 167°
2026-05-01 11:20 24.64896 142.12426 35999 ft 491 kts 167°
2026-05-01 11:20 24.58233 142.14058 35999 ft 491 kts 167°
2026-05-01 11:21 24.51608 142.15676 35999 ft 491 kts 167°
2026-05-01 11:21 24.44934 142.17303 35999 ft 491 kts 168°
2026-05-01 11:22 24.38264 142.18926 36002 ft 491 kts 168°
2026-05-01 11:22 24.31588 142.20547 35999 ft 491 kts 168°
2026-05-01 11:23 24.24904 142.22167 35999 ft 491 kts 168°
2026-05-01 11:23 24.18233 142.23782 35999 ft 491 kts 168°
2026-05-01 11:24 24.11551 142.25399 35999 ft 491 kts 168°
2026-05-01 11:25 24.01585 142.27807 35999 ft 491 kts 168°
2026-05-01 11:25 23.91562 142.30224 36002 ft 491 kts 168°
2026-05-01 11:26 23.82673 142.32365 35999 ft 491 kts 168°
2026-05-01 11:27 23.75995 142.33972 35999 ft 491 kts 168°
2026-05-01 11:27 23.69322 142.35575 36001 ft 491 kts 168°
2026-05-01 11:28 23.62882 142.37122 36003 ft 491 kts 168°
2026-05-01 11:28 23.58110 142.38266 35998 ft 491 kts 168°
2026-05-01 11:29 23.48088 142.40667 35999 ft 491 kts 168°
2026-05-01 11:30 23.38107 142.43055 36000 ft 491 kts 168°
2026-05-01 11:30 23.31435 142.44649 36001 ft 491 kts 168°
2026-05-01 11:31 23.24767 142.46241 35999 ft 491 kts 168°
2026-05-01 11:31 23.18111 142.47828 35999 ft 491 kts 168°
2026-05-01 11:32 23.11437 142.49418 35999 ft 491 kts 168°
2026-05-01 11:32 23.04765 142.51005 36001 ft 491 kts 168°
2026-05-01 11:33 22.98105 142.52589 36001 ft 491 kts 168°
2026-05-01 11:33 22.91432 142.54173 35999 ft 491 kts 168°
2026-05-01 11:34 22.84760 142.55756 36004 ft 491 kts 168°
2026-05-01 11:34 22.78083 142.57339 36000 ft 491 kts 168°
2026-05-01 11:35 22.71445 142.58911 35999 ft 491 kts 168°
2026-05-01 11:35 22.64777 142.60488 36001 ft 491 kts 168°
2026-05-01 11:36 22.58103 142.62066 35999 ft 491 kts 168°
2026-05-01 11:36 22.51425 142.63642 35999 ft 491 kts 168°
2026-05-01 11:37 22.44741 142.65219 36001 ft 491 kts 168°
2026-05-01 11:37 22.38067 142.66791 36000 ft 491 kts 168°
2026-05-01 11:38 22.31385 142.68364 35999 ft 491 kts 168°
2026-05-01 11:38 22.24705 142.69935 35999 ft 491 kts 168°
2026-05-01 11:39 22.18023 142.71505 35999 ft 491 kts 168°
2026-05-01 11:39 22.11344 142.73073 35999 ft 491 kts 168°
2026-05-01 11:40 22.04699 142.74631 36002 ft 491 kts 168°
2026-05-01 11:40 21.98022 142.76195 36000 ft 491 kts 168°
2026-05-01 11:41 21.91337 142.77760 36001 ft 491 kts 168°
2026-05-01 11:41 21.84656 142.79323 36001 ft 491 kts 168°
2026-05-01 11:42 21.77977 142.80883 35999 ft 491 kts 168°
2026-05-01 11:42 21.71296 142.82443 36000 ft 491 kts 168°
2026-05-01 11:43 21.64607 142.84004 35999 ft 491 kts 168°
2026-05-01 11:43 21.57927 142.85561 35999 ft 491 kts 168°
2026-05-01 11:44 21.47932 142.87889 35999 ft 491 kts 168°
2026-05-01 11:44 21.41261 142.89441 35999 ft 491 kts 168°
2026-05-01 11:45 21.34579 142.90992 36001 ft 491 kts 168°
2026-05-01 11:45 21.27886 142.92545 36001 ft 491 kts 168°
2026-05-01 11:46 21.21201 142.94094 35999 ft 491 kts 168°
2026-05-01 11:46 21.14559 142.95633 35999 ft 491 kts 168°
2026-05-01 11:47 21.07878 142.97179 35999 ft 491 kts 168°
2026-05-01 11:47 21.01193 142.98668 36002 ft 491 kts 169°
2026-05-01 11:48 20.94448 142.99916 35999 ft 491 kts 171°
2026-05-01 11:48 20.87703 143.01088 35999 ft 491 kts 171°
2026-05-01 11:49 20.80956 143.02242 35999 ft 491 kts 171°
2026-05-01 11:49 20.74246 143.03382 35999 ft 491 kts 171°
2026-05-01 11:50 20.67500 143.04527 36003 ft 491 kts 171°
2026-05-01 11:50 20.60743 143.05672 35999 ft 491 kts 171°
2026-05-01 11:51 20.53989 143.06815 35999 ft 491 kts 171°
2026-05-01 11:51 20.47233 143.07958 36002 ft 491 kts 171°
2026-05-01 11:52 20.40480 143.09099 36002 ft 491 kts 171°
2026-05-01 11:52 20.33770 143.10232 35999 ft 491 kts 171°
2026-05-01 11:53 20.27027 143.11370 35999 ft 491 kts 171°
2026-05-01 11:53 20.20266 143.12509 35999 ft 491 kts 171°
2026-05-01 11:54 20.13512 143.13647 35999 ft 491 kts 171°
2026-05-01 11:54 20.06759 143.14783 36002 ft 491 kts 171°
2026-05-01 11:55 20.00054 143.15911 36002 ft 491 kts 171°
2026-05-01 11:55 19.93300 143.17045 35999 ft 491 kts 171°
2026-05-01 11:56 19.86553 143.18177 36000 ft 491 kts 171°
2026-05-01 11:56 19.79841 143.19303 36001 ft 491 kts 171°
2026-05-01 11:57 19.73091 143.20434 36001 ft 491 kts 171°
2026-05-01 11:57 19.66333 143.21565 35999 ft 491 kts 171°
2026-05-01 11:58 19.59571 143.22696 35999 ft 491 kts 171°
2026-05-01 11:59 19.49444 143.24388 36001 ft 491 kts 171°
2026-05-01 11:59 19.42701 143.25514 35999 ft 491 kts 171°
2026-05-01 12:00 19.32621 143.27194 35999 ft 491 kts 171°
2026-05-01 12:01 19.22485 143.28882 35999 ft 491 kts 171°
2026-05-01 12:01 19.15736 143.30005 35999 ft 491 kts 171°
2026-05-01 12:02 19.08986 143.31128 35999 ft 491 kts 171°
2026-05-01 12:02 19.02237 143.32248 35999 ft 491 kts 171°
2026-05-01 12:03 18.95485 143.33369 36001 ft 491 kts 171°
2026-05-01 12:03 18.88733 143.34488 36000 ft 491 kts 171°
2026-05-01 12:04 18.81985 143.35606 36001 ft 491 kts 171°
2026-05-01 12:04 18.75226 143.36725 35999 ft 491 kts 171°
2026-05-01 12:05 18.68524 143.37834 35999 ft 491 kts 171°
2026-05-01 12:05 18.58383 143.39510 35999 ft 491 kts 171°
2026-05-01 12:06 18.51624 143.40625 35999 ft 491 kts 171°
2026-05-01 12:06 18.44907 143.41733 35999 ft 491 kts 171°
2026-05-01 12:07 18.38148 143.42847 36002 ft 491 kts 171°
2026-05-01 12:07 18.31396 143.43959 35999 ft 491 kts 171°
2026-05-01 12:08 18.24642 143.45071 35999 ft 491 kts 171°
2026-05-01 12:08 18.17896 143.46180 36000 ft 491 kts 171°
2026-05-01 12:09 18.11147 143.47289 35999 ft 491 kts 171°
2026-05-01 12:09 18.04396 143.48397 36002 ft 491 kts 171°
2026-05-01 12:10 17.94263 143.50059 35999 ft 491 kts 171°
2026-05-01 12:11 17.84173 143.51712 36000 ft 491 kts 171°
2026-05-01 12:11 17.77419 143.52817 36000 ft 491 kts 171°
2026-05-01 12:12 17.71802 143.53736 35999 ft 491 kts 171°
2026-05-01 12:12 17.65606 143.54749 36001 ft 491 kts 171°
2026-05-01 12:13 17.58776 143.55864 35999 ft 491 kts 171°
2026-05-01 12:13 17.52025 143.56966 35999 ft 491 kts 171°
2026-05-01 12:14 17.45299 143.58063 36003 ft 491 kts 171°
2026-05-01 12:14 17.38545 143.59164 35999 ft 491 kts 171°
2026-05-01 12:15 17.31790 143.60264 35999 ft 491 kts 171°
2026-05-01 12:15 17.25038 143.61362 36000 ft 491 kts 171°
2026-05-01 12:16 17.18319 143.62454 36002 ft 491 kts 171°
2026-05-01 12:16 17.11577 143.63550 35999 ft 491 kts 171°
2026-05-01 12:17 17.04817 143.64647 36002 ft 491 kts 171°
2026-05-01 12:17 16.98060 143.65744 36000 ft 491 kts 171°
2026-05-01 12:18 16.91307 143.66838 35999 ft 491 kts 171°
2026-05-01 12:18 16.84581 143.67928 35999 ft 491 kts 171°
2026-05-01 12:19 16.77828 143.69021 36001 ft 491 kts 171°
2026-05-01 12:19 16.71079 143.70113 36000 ft 491 kts 171°
2026-05-01 12:20 16.64897 143.71113 36001 ft 491 kts 171°
2026-05-01 12:20 16.58158 143.72201 35999 ft 491 kts 171°
2026-05-01 12:21 16.51409 143.73291 35999 ft 491 kts 171°
2026-05-01 12:21 16.44696 143.74373 35999 ft 491 kts 171°
2026-05-01 12:22 16.37927 143.75465 35999 ft 491 kts 171°
2026-05-01 12:22 16.31168 143.76554 35999 ft 491 kts 171°
2026-05-01 12:23 16.24451 143.77635 35999 ft 491 kts 171°
2026-05-01 12:23 16.17695 143.78722 35999 ft 491 kts 171°
2026-05-01 12:24 16.10937 143.79809 35999 ft 491 kts 171°
2026-05-01 12:24 16.04184 143.80893 35999 ft 491 kts 171°
2026-05-01 12:25 15.94043 143.82521 35999 ft 491 kts 171°
2026-05-01 12:26 15.87286 143.83604 35999 ft 491 kts 171°
2026-05-01 12:26 15.77197 143.85221 36001 ft 491 kts 171°
2026-05-01 12:27 15.67053 143.86845 35999 ft 491 kts 171°
2026-05-01 12:28 15.56915 143.88466 35999 ft 491 kts 171°
2026-05-01 12:29 15.46821 143.90079 35999 ft 491 kts 171°
2026-05-01 12:29 15.36677 143.91698 36001 ft 491 kts 171°
2026-05-01 12:30 15.26539 143.93314 35999 ft 491 kts 171°
2026-05-01 12:31 15.19785 143.94390 35999 ft 491 kts 171°
2026-05-01 12:31 15.13072 143.95459 35999 ft 491 kts 171°
2026-05-01 12:32 15.06317 143.96534 36002 ft 491 kts 171°
2026-05-01 12:32 14.96168 143.98037 36000 ft 491 kts 175°
2026-05-01 12:33 14.89355 143.98545 35999 ft 491 kts 177°
2026-05-01 12:33 14.82534 143.98925 36002 ft 491 kts 177°
2026-05-01 12:34 14.75704 143.99271 35998 ft 491 kts 177°
2026-05-01 12:34 14.68927 143.99606 36000 ft 491 kts 177°
2026-05-01 12:35 14.62103 143.99941 36001 ft 491 kts 177°
2026-05-01 12:35 14.55288 144.00275 36000 ft 491 kts 177°
2026-05-01 12:36 14.48442 144.00608 36002 ft 491 kts 177°
2026-05-01 12:36 14.41659 144.00938 35998 ft 491 kts 177°
2026-05-01 12:37 14.34836 144.01270 36000 ft 491 kts 177°
2026-05-01 12:37 14.28019 144.01602 36001 ft 491 kts 177°
2026-05-01 12:38 14.21185 144.01934 36002 ft 491 kts 177°
2026-05-01 12:38 14.15884 144.02192 36000 ft 491 kts 177°
2026-05-01 12:39 14.09577 144.02499 36000 ft 491 kts 177°
2026-05-01 12:39 14.02760 144.02832 35999 ft 491 kts 177°
2026-05-01 12:40 13.95978 144.03162 36004 ft 491 kts 177°
2026-05-01 12:40 13.89144 144.03493 36002 ft 491 kts 178°
2026-05-01 12:41 13.82319 144.03823 36000 ft 491 kts 178°
2026-05-01 12:41 13.75495 144.04154 36002 ft 491 kts 177°
2026-05-01 12:42 13.68665 144.04485 36001 ft 491 kts 177°
2026-05-01 12:42 13.61883 144.04814 36001 ft 491 kts 177°
2026-05-01 12:43 13.55062 144.05167 35999 ft 491 kts 176°
2026-05-01 12:43 13.48256 144.05839 36000 ft 491 kts 174°
2026-05-01 12:44 13.41463 144.06635 35998 ft 491 kts 173°
2026-05-01 12:45 13.27888 144.08291 35999 ft 491 kts 173°
2026-05-01 12:45 13.21108 144.09123 35998 ft 491 kts 173°
2026-05-01 12:46 13.14325 144.09957 35998 ft 491 kts 173°
2026-05-01 12:46 13.07588 144.10784 36002 ft 491 kts 173°
2026-05-01 12:47 13.00803 144.11617 36001 ft 491 kts 173°
2026-05-01 12:47 12.94015 144.12450 35998 ft 491 kts 173°
2026-05-01 12:48 12.87234 144.13281 36001 ft 491 kts 173°
2026-05-01 12:48 12.80450 144.14112 36002 ft 491 kts 173°
2026-05-01 12:49 12.73652 144.14945 35998 ft 491 kts 173°
2026-05-01 12:49 12.66912 144.15770 36001 ft 491 kts 173°
2026-05-01 12:50 12.60128 144.16601 35998 ft 491 kts 173°
2026-05-01 12:50 12.53338 144.17431 36001 ft 491 kts 173°
2026-05-01 12:51 12.46556 144.18260 35998 ft 491 kts 173°
2026-05-01 12:52 12.36373 144.19504 36000 ft 491 kts 173°
2026-05-01 12:52 12.26188 144.20747 36000 ft 491 kts 173°
2026-05-01 12:53 12.17736 144.21779 36002 ft 491 kts 173°
2026-05-01 12:54 12.10394 144.22673 36000 ft 491 kts 173°
2026-05-01 12:54 12.00253 144.23909 35998 ft 491 kts 173°
2026-05-01 12:55 11.90059 144.25150 36001 ft 491 kts 173°
2026-05-01 12:56 11.83316 144.25970 35999 ft 491 kts 173°
2026-05-01 12:56 11.76531 144.26795 36001 ft 491 kts 173°
2026-05-01 12:57 11.69738 144.27621 36000 ft 491 kts 173°
2026-05-01 12:57 11.60709 144.28718 36001 ft 491 kts 173°
2026-05-01 12:58 11.53880 144.29547 35998 ft 491 kts 173°
2026-05-01 12:59 11.43737 144.30778 35998 ft 491 kts 173°
2026-05-01 12:59 11.33556 144.32012 35999 ft 491 kts 173°
2026-05-01 13:00 11.23407 144.33242 36000 ft 491 kts 173°
2026-05-01 13:01 11.13221 144.34475 35998 ft 491 kts 173°
2026-05-01 13:02 11.03084 144.35702 36001 ft 491 kts 173°
2026-05-01 13:07 10.29152 144.44621 36001 ft 491 kts 173°
2026-05-01 13:08 10.22363 144.45438 35999 ft 491 kts 173°
2026-05-01 13:08 10.15575 144.46255 35998 ft 491 kts 173°
2026-05-01 13:09 10.08788 144.47071 36003 ft 491 kts 173°
2026-05-01 13:09 10.01999 144.47886 35999 ft 491 kts 173°
2026-05-01 13:10 9.95254 144.48697 35999 ft 491 kts 173°
2026-05-01 13:10 9.88469 144.49511 35999 ft 491 kts 173°
2026-05-01 13:11 9.81682 144.50326 36003 ft 491 kts 173°
2026-05-01 13:11 9.74891 144.51141 35998 ft 491 kts 173°
2026-05-01 13:12 9.68110 144.51954 35998 ft 491 kts 173°
2026-05-01 13:12 9.61327 144.52767 36002 ft 491 kts 173°
2026-05-01 13:13 9.54574 144.53576 35999 ft 491 kts 173°
2026-05-01 13:13 9.47789 144.54389 36000 ft 491 kts 173°
2026-05-01 13:14 9.41004 144.55201 35999 ft 491 kts 173°
2026-05-01 13:14 9.34224 144.56013 35997 ft 491 kts 173°
2026-05-01 13:15 9.27438 144.56825 35998 ft 491 kts 173°
2026-05-01 13:15 9.20653 144.57636 35999 ft 491 kts 173°
2026-05-01 13:16 9.13896 144.58444 36000 ft 491 kts 173°
2026-05-01 13:16 9.07107 144.59255 35998 ft 491 kts 173°
2026-05-01 13:17 8.93533 144.60876 36001 ft 491 kts 173°
2026-05-01 13:18 8.83353 144.62091 35998 ft 491 kts 173°
2026-05-01 13:18 8.76564 144.62901 36002 ft 491 kts 173°
2026-05-01 13:19 8.69818 144.63705 35998 ft 491 kts 173°
2026-05-01 13:20 8.59633 144.64920 36000 ft 491 kts 173°
2026-05-01 13:20 8.52847 144.65728 35999 ft 491 kts 173°
2026-05-01 13:21 8.42708 144.66936 36001 ft 491 kts 173°
2026-05-01 13:21 8.35924 144.67743 36003 ft 491 kts 173°
2026-05-01 13:22 8.29139 144.68551 35999 ft 491 kts 173°
2026-05-01 13:22 8.22354 144.69358 35999 ft 491 kts 173°
2026-05-01 13:23 8.16061 144.70106 36001 ft 491 kts 173°
2026-05-01 13:23 8.09321 144.70908 35999 ft 491 kts 173°
2026-05-01 13:24 8.02539 144.71713 36001 ft 491 kts 173°
2026-05-01 13:25 7.92347 144.72924 35998 ft 491 kts 173°
2026-05-01 13:25 7.85569 144.73729 35998 ft 491 kts 173°
2026-05-01 13:26 7.78772 144.74536 36000 ft 491 kts 173°
2026-05-01 13:26 7.71991 144.75340 36001 ft 491 kts 173°
2026-05-01 13:27 7.65202 144.76145 36002 ft 491 kts 173°
2026-05-01 13:27 7.55056 144.77349 35999 ft 491 kts 173°
2026-05-01 13:28 7.44871 144.78555 36000 ft 491 kts 173°
2026-05-01 13:29 7.31297 144.80161 35999 ft 491 kts 173°
2026-05-01 13:31 7.10965 144.82568 36002 ft 491 kts 173°
2026-05-01 13:32 6.93999 144.84575 35999 ft 491 kts 173°
2026-05-01 13:33 6.77581 144.86516 36001 ft 491 kts 173°
2026-05-01 13:34 6.64013 144.88119 35999 ft 491 kts 173°
2026-05-01 13:35 6.53839 144.89320 36003 ft 491 kts 173°
2026-05-01 13:36 6.43695 144.90517 35999 ft 491 kts 173°
2026-05-01 13:36 6.33509 144.91718 35999 ft 491 kts 173°
2026-05-01 13:37 6.27851 144.92385 36000 ft 491 kts 173°
2026-05-01 13:37 6.19957 144.93316 35999 ft 491 kts 173°
2026-05-01 13:38 6.09781 144.94515 35997 ft 491 kts 173°
2026-05-01 13:39 6.02992 144.95315 36002 ft 491 kts 173°
2026-05-01 13:39 5.96203 144.96115 36000 ft 491 kts 173°
2026-05-01 13:40 5.89417 144.96914 35997 ft 491 kts 173°
2026-05-01 13:40 5.82622 144.97714 36001 ft 491 kts 173°
2026-05-01 13:41 5.75871 144.98509 35999 ft 491 kts 173°
2026-05-01 13:41 5.69080 144.99308 36001 ft 491 kts 173°
2026-05-01 13:42 5.62296 145.00106 36001 ft 491 kts 173°
2026-05-01 13:42 5.55501 145.00905 35997 ft 491 kts 173°
2026-05-01 13:43 5.48698 145.01705 35999 ft 491 kts 173°
2026-05-01 13:43 5.41945 145.02499 35999 ft 491 kts 173°
2026-05-01 13:44 5.35158 145.03297 35999 ft 491 kts 173°
2026-05-01 13:44 5.28360 145.04095 36000 ft 491 kts 173°
2026-05-01 13:45 5.22725 145.04757 36003 ft 491 kts 173°
2026-05-01 13:45 5.15936 145.05555 36000 ft 491 kts 173°
2026-05-01 13:46 5.09142 145.06353 35997 ft 491 kts 173°
2026-05-01 13:46 5.02366 145.07148 35999 ft 491 kts 173°
2026-05-01 13:47 4.95570 145.07946 36001 ft 491 kts 173°
2026-05-01 13:47 4.88822 145.08738 36002 ft 491 kts 173°
2026-05-01 13:48 4.82032 145.09535 35999 ft 491 kts 173°
2026-05-01 13:48 4.75246 145.10330 35997 ft 491 kts 173°
2026-05-01 13:49 4.68457 145.11127 36000 ft 491 kts 173°
2026-05-01 13:49 4.61666 145.11923 35999 ft 491 kts 173°
2026-05-01 13:50 4.54880 145.12719 36000 ft 491 kts 173°
2026-05-01 13:50 4.48141 145.13509 35997 ft 491 kts 173°
2026-05-01 13:51 4.41358 145.14304 36000 ft 491 kts 173°
2026-05-01 13:51 4.34568 145.15099 36003 ft 491 kts 173°
2026-05-01 13:52 4.27758 145.15897 35998 ft 491 kts 173°
2026-05-01 13:52 4.21009 145.16688 36003 ft 491 kts 173°
2026-05-01 13:53 4.14221 145.17483 35998 ft 491 kts 173°
2026-05-01 13:53 4.04037 145.18675 35998 ft 491 kts 173°
2026-05-01 13:54 3.97244 145.19470 36000 ft 491 kts 173°
2026-05-01 13:54 3.90464 145.20264 35999 ft 491 kts 173°
2026-05-01 13:55 3.83720 145.21053 35999 ft 491 kts 173°
2026-05-01 13:55 3.76927 145.21848 36000 ft 491 kts 173°
2026-05-01 13:56 3.70125 145.22644 35998 ft 491 kts 173°
2026-05-01 13:56 3.63343 145.23437 35999 ft 491 kts 173°
2026-05-01 13:57 3.56596 145.24226 36001 ft 491 kts 173°
2026-05-01 13:57 3.49808 145.25020 35998 ft 491 kts 173°
2026-05-01 13:58 3.43028 145.25812 36003 ft 491 kts 173°
2026-05-01 13:58 3.36234 145.26607 35999 ft 491 kts 173°
2026-05-01 13:59 3.29447 145.27400 36000 ft 491 kts 173°
2026-05-01 13:59 3.23039 145.28149 36000 ft 491 kts 173°
2026-05-01 14:00 3.18454 145.28684 35998 ft 491 kts 173°
2026-05-01 14:00 3.11665 145.29477 35999 ft 491 kts 173°
2026-05-01 14:01 3.04917 145.30266 35998 ft 491 kts 173°
2026-05-01 14:01 2.98111 145.31061 35998 ft 491 kts 173°
2026-05-01 14:02 2.91315 145.31855 36001 ft 491 kts 173°
2026-05-01 14:02 2.84576 145.32642 36003 ft 491 kts 173°
2026-05-01 14:03 2.77784 145.33435 36004 ft 491 kts 173°
2026-05-01 14:03 2.70995 145.34228 35999 ft 491 kts 173°
2026-05-01 14:04 2.64210 145.35020 36000 ft 491 kts 173°
2026-05-01 14:04 2.58573 145.35678 35998 ft 491 kts 173°
2026-05-01 14:05 2.50622 145.36606 36002 ft 491 kts 173°
2026-05-01 14:05 2.43879 145.37393 36000 ft 491 kts 173°
2026-05-01 14:06 2.37082 145.38186 36001 ft 491 kts 173°
2026-05-01 14:06 2.30287 145.38979 35998 ft 491 kts 173°
2026-05-01 14:07 2.23546 145.39765 35999 ft 491 kts 173°
2026-05-01 14:08 2.13356 145.40954 36004 ft 491 kts 173°
2026-05-01 14:08 2.06572 145.41745 36001 ft 491 kts 173°
2026-05-01 14:09 1.99784 145.42537 36001 ft 491 kts 173°
2026-05-01 14:09 1.92999 145.43328 35998 ft 491 kts 173°
2026-05-01 14:10 1.86207 145.44120 35998 ft 491 kts 173°
2026-05-01 14:10 1.79454 145.44908 36001 ft 491 kts 173°
2026-05-01 14:11 1.72671 145.45699 35998 ft 491 kts 173°
2026-05-01 14:11 1.62484 145.46887 36000 ft 491 kts 173°
2026-05-01 14:12 1.55689 145.47679 35998 ft 491 kts 173°
2026-05-01 14:12 1.48904 145.48470 35998 ft 491 kts 173°
2026-05-01 14:13 1.43267 145.49127 35998 ft 491 kts 173°
2026-05-01 14:13 1.35368 145.50047 36000 ft 491 kts 173°
2026-05-01 14:14 1.28583 145.50838 36001 ft 491 kts 173°
2026-05-01 14:14 1.22316 145.51569 36000 ft 491 kts 173°
2026-05-01 14:15 1.15567 145.52355 35999 ft 491 kts 173°
2026-05-01 14:15 1.08775 145.53147 36002 ft 491 kts 173°
2026-05-01 14:16 1.01992 145.53937 36001 ft 491 kts 173°
2026-05-01 14:16 0.95208 145.54727 35999 ft 491 kts 173°
2026-05-01 14:17 0.88418 145.55519 36004 ft 491 kts 173°
2026-05-01 14:17 0.81634 145.56309 35999 ft 491 kts 173°
2026-05-01 14:18 0.74847 145.57100 36003 ft 491 kts 173°
2026-05-01 14:18 0.69196 145.57758 35999 ft 491 kts 173°
2026-05-01 14:19 0.61308 145.58677 35999 ft 491 kts 173°
2026-05-01 14:19 0.54521 145.59468 35999 ft 491 kts 173°
2026-05-01 14:20 0.44339 145.60654 36000 ft 491 kts 173°
2026-05-01 14:21 0.37560 145.61443 36001 ft 491 kts 173°
2026-05-01 14:21 0.30769 145.62235 35999 ft 491 kts 173°
2026-05-01 14:22 0.20593 145.63420 35999 ft 491 kts 173°
2026-05-01 14:22 0.13852 145.64205 36004 ft 491 kts 173°
2026-05-01 14:23 0.07020 145.65001 35999 ft 491 kts 173°
2026-05-01 14:23 0.00277 145.65787 36004 ft 491 kts 173°
2026-05-01 14:24 -0.05044 145.66406 35999 ft 491 kts 173°
2026-05-01 14:24 -0.12397 145.67263 35999 ft 491 kts 173°
2026-05-01 14:25 -0.19185 145.68054 36003 ft 491 kts 173°
2026-05-01 14:25 -0.25938 145.68840 36002 ft 491 kts 173°
2026-05-01 14:26 -0.36116 145.70026 35999 ft 491 kts 173°
2026-05-01 14:27 -0.42901 145.70816 35999 ft 491 kts 173°
2026-05-01 14:27 -0.49691 145.71605 35999 ft 491 kts 173°
2026-05-01 14:28 -0.59841 145.72787 35999 ft 491 kts 173°
2026-05-01 14:28 -0.66624 145.73577 35999 ft 491 kts 173°
2026-05-01 14:29 -0.73407 145.74368 35999 ft 491 kts 173°
2026-05-01 14:30 -0.86982 145.75949 35999 ft 491 kts 173°
2026-05-01 14:31 -0.97170 145.77137 35999 ft 491 kts 173°
2026-05-01 14:31 -1.03924 145.77924 35999 ft 491 kts 173°
2026-05-01 14:32 -1.10721 145.78716 35999 ft 491 kts 173°
2026-05-01 14:32 -1.17508 145.79507 35999 ft 491 kts 173°
2026-05-01 14:33 -1.24287 145.80297 35999 ft 491 kts 173°
2026-05-01 14:33 -1.29950 145.80958 36001 ft 491 kts 173°
2026-05-01 14:34 -1.36736 145.81749 35999 ft 491 kts 173°
2026-05-01 14:34 -1.43528 145.82541 35999 ft 491 kts 173°
2026-05-01 14:35 -1.50266 145.83327 35999 ft 491 kts 173°
2026-05-01 14:35 -1.57049 145.84117 35999 ft 491 kts 173°
2026-05-01 14:36 -1.63844 145.84909 35999 ft 491 kts 173°
2026-05-01 14:36 -1.70623 145.85699 35999 ft 491 kts 173°
2026-05-01 14:37 -1.77407 145.86490 36002 ft 491 kts 173°
2026-05-01 14:37 -1.84202 145.87282 35999 ft 491 kts 173°
2026-05-01 14:38 -1.90995 145.88074 36001 ft 491 kts 173°
2026-05-01 14:38 -1.97784 145.88866 35999 ft 491 kts 173°
2026-05-01 14:39 -2.04540 145.89654 35999 ft 491 kts 173°
2026-05-01 14:39 -2.11337 145.90447 35999 ft 491 kts 173°
2026-05-01 14:40 -2.18132 145.91240 35999 ft 491 kts 173°
2026-05-01 14:40 -2.24867 145.92026 35999 ft 491 kts 173°
2026-05-01 14:41 -2.31170 145.92762 35999 ft 491 kts 173°
2026-05-01 14:41 -2.37952 145.93554 35999 ft 491 kts 173°
2026-05-01 14:42 -2.44736 145.94345 35999 ft 491 kts 173°
2026-05-01 14:42 -2.51525 145.95137 36002 ft 491 kts 173°
2026-05-01 14:43 -2.58317 145.95930 35999 ft 491 kts 173°
2026-05-01 14:43 -2.65103 145.96722 36000 ft 491 kts 173°
2026-05-01 14:44 -2.71845 145.97509 36000 ft 491 kts 173°
2026-05-01 14:44 -2.81965 145.98691 35996 ft 465 kts 173°
2026-05-01 14:45 -2.85067 145.99054 35994 ft 442 kts 173°
2026-05-01 14:45 -2.90878 145.99734 35994 ft 399 kts 173°
2026-05-01 14:45 -2.93570 146.00049 35994 ft 380 kts 173°
2026-05-01 14:46 -2.96131 146.00348 35995 ft 361 kts 173°
2026-05-01 14:46 -3.00860 146.00901 35994 ft 323 kts 174°
2026-05-01 14:46 -3.03040 146.01156 35766 ft 311 kts 174°
2026-05-01 14:47 -3.05202 146.01408 35064 ft 316 kts 174°
2026-05-01 14:47 -3.07415 146.01666 34282 ft 323 kts 174°
2026-05-01 14:47 -3.09637 146.01924 33866 ft 317 kts 174°
2026-05-01 14:48 -3.13334 146.02356 33330 ft 302 kts 174°
2026-05-01 14:48 -3.15431 146.02601 32693 ft 306 kts 174°
2026-05-01 14:48 -3.19957 146.03128 32466 ft 342 kts 174°
2026-05-01 14:49 -3.24871 146.03805 32565 ft 370 kts 171°
2026-05-01 14:49 -3.30107 146.04753 32691 ft 398 kts 169°
2026-05-01 14:50 -3.34671 146.05638 33347 ft 403 kts 169°
2026-05-01 14:50 -3.41069 146.06907 34374 ft 405 kts 169°
2026-05-01 14:51 -3.43854 146.07463 34776 ft 406 kts 169°
2026-05-01 14:51 -3.49440 146.08584 35591 ft 409 kts 169°
2026-05-01 14:52 -3.55120 146.09727 35921 ft 425 kts 169°
2026-05-01 14:52 -3.58055 146.10318 35963 ft 436 kts 169°
2026-05-01 14:52 -3.64124 146.11540 35988 ft 459 kts 169°
2026-05-01 14:53 -3.67296 146.12180 35993 ft 470 kts 169°
2026-05-01 14:53 -3.70545 146.12835 35994 ft 481 kts 169°
2026-05-01 14:53 -3.73860 146.13504 35992 ft 490 kts 169°
2026-05-01 14:54 -3.80558 146.14856 35995 ft 491 kts 169°
2026-05-01 14:54 -3.87266 146.16212 35995 ft 491 kts 169°
2026-05-01 14:55 -3.93928 146.17558 35996 ft 491 kts 169°
2026-05-01 14:55 -4.00626 146.18911 35995 ft 491 kts 169°
2026-05-01 14:56 -4.07330 146.20266 35999 ft 491 kts 169°
2026-05-01 14:56 -4.14031 146.21620 35999 ft 491 kts 169°
2026-05-01 14:57 -4.20723 146.22973 35996 ft 491 kts 169°
2026-05-01 14:57 -4.30775 146.25005 35997 ft 491 kts 169°
2026-05-01 14:58 -4.37441 146.26354 35997 ft 491 kts 169°
2026-05-01 14:58 -4.42999 146.27478 36000 ft 491 kts 169°